Location: Unspecified
(0.0000°N, 0.0000°E)
Time: 04:40:55
(UTC+00:00)

Vanguard 1 Rocket - Visible Passes

Search period start: 21 May 2026 00:00
Search period end: 31 May 2026 00:00
Orbit: 656 x 4211 km, 34.3° (Epoch: 20 May)

Date Brightness Start Highest point End Pass type
(mag) Time Alt. Az. Time Alt. Az. Time Alt. Az.
21 May 10.5 20:01:26 10° NW 20:21:41 67° NE 20:31:18 48° E visible
21 May 10.8 22:31:07 10° WNW 22:48:28 51° W 22:48:28 51° W visible
22 May11.401:47:07SSE01:47:07SSE01:05:38Wvisible
22 May 10.7 18:48:42 10° NNW 19:05:22 47° NE 19:22:51 22° E visible
22 May 10.3 21:15:33 10° WNW 21:38:20 80° SW 21:40:01 78° S visible
22 May 11.5 23:50:27 10° W 23:57:11 21° W 23:57:11 21° W visible
23 May 11.0 02:55:48 10° S 02:55:48 10° S 02:55:56 10° S visible
23 May 10.4 20:01:33 10° NW 20:21:28 77° NE 20:31:37 50° ESE visible
23 May 10.9 22:31:59 10° WNW 22:48:47 45° WSW 22:48:47 45° WSW visible
24 May 10.5 18:48:44 10° NW 19:05:19 55° NE 19:23:14 23° ESE visible
24 May 10.4 21:16:00 10° WNW 21:38:11 70° SW 21:40:24 68° SSW visible
24 May 11.6 23:52:25 10° W 23:57:35 17° WSW 23:57:35 17° WSW visible
25 May 11.0 02:56:03 11° S 02:56:03 11° S 02:57:25 10° SSE visible
25 May 10.3 05:20:19 10° SSW 05:25:11 14° SSE 05:29:00 10° SE visible
25 May 10.3 20:01:47 10° NW 20:21:15 89° NE 20:32:04 49° SE visible
25 May 11.0 22:33:11 10° W 22:49:14 39° WSW 22:49:14 39° WSW visible
26 May 10.7 04:04:46 10° SSW 04:09:52 12° S 04:14:04 10° SSE visible
26 May 10.3 18:48:51 10° NW 19:05:09 65° NE 19:23:45 24° ESE visible
26 May 10.5 21:16:42 10° WNW 21:38:11 60° SW 21:40:56 58° SSW visible
26 May 11.7 23:54:49 10° WSW 23:58:06 14° WSW 23:58:06 14° WSW visible
27 May 11.0 02:56:20 13° S 02:56:20 13° S 02:59:43 10° SSE visible
27 May 10.0 05:18:57 10° SSW 05:26:35 19° SSE 05:31:48 10° ESE visible
27 May 10.3 20:02:12 10° WNW 20:21:08 80° SW 20:32:38 46° SE visible
27 May 11.1 22:34:44 10° W 22:49:49 34° SW 22:49:49 34° SW visible
28 May 10.6 04:05:04 12° SSW 04:11:33 16° S 04:17:25 10° SE visible
28 May 10.2 18:49:04 10° NW 19:05:00 76° NE 19:24:21 23° ESE visible
28 May 10.7 21:17:41 10° WNW 21:38:26 51° SSW 21:41:32 50° SSW visible
28 May 11.8 23:57:32 10° WSW 23:58:43 11° WSW 23:58:43 11° WSW visible
29 May 10.9 02:56:41 15° S 02:56:41 15° S 03:02:30 10° SSE visible
29 May 9.7 05:18:02 10° SSW 05:27:50 27° SSE 05:33:51 10° ESE visible
29 May 10.4 20:02:48 10° WNW 20:21:10 69° SW 20:33:16 42° SSE visible
29 May 11.2 22:36:40 10° W 22:50:27 29° SW 22:50:27 29° SW visible
30 May 10.4 04:05:28 14° SSW 04:13:06 21° SSE 04:20:04 10° ESE visible
30 May 10.2 18:49:26 10° NW 19:04:55 89° NE 19:25:00 22° SE visible
30 May 10.8 21:18:57 10° W 21:38:56 44° SSW 21:42:11 42° SSW visible
